Regional Weather Roundup
Issued by NWS

Home | Current Version | Previous Version | Graphics & Text | Print | Product List | Glossary On
Versions: 1 2 3 4 5 6 7 8 9 10 11 12 13 14 15 16 17 18 19 20 21 22 23 24 25 26 27 28 29 30 31 32 33 34 35 36 37 38 39 40 41 42 43 44 45 46 47 48 49 50
000
ASUS45 KCYS 201310
RWRWY

WYOMING REGIONAL WEATHER ROUNDUP
NATIONAL WEATHER SERVICE CHEYENNE WY
700 AM MDT MON APR 20 2015

NOTE:  "FAIR" INDICATES FEW OR NO CLOUDS BELOW 12,000 FEET
WITH NO SIGNIFICANT WEATHER AND/OR OBSTRUCTIONS TO VISIBILITY.

WYZ001-201400-
YELLOWSTONE NATIONAL PARK

CITY           SKY/WX    TMP DP  RH WIND       PRES   REMARKS
LK YELLOWSTONE   N/A     21  17  84 CALM      30.05R
W YELLOWSTONE  NOT AVBL

$$
WYZ002>013-054>058-071-098>099-201400-
NORTHERN WYOMING

CITY           SKY/WX    TMP DP  RH WIND       PRES   REMARKS
JACKSON        FAIR      25  25 100 N5        30.02S WCI  19
CODY           FAIR      28  25  86 S5        30.01R WCI  23
GREYBULL       FAIR      32  17  54 CALM      30.01S
WORLAND        FAIR      30  22  72 S6        30.01S WCI  24
SHERIDAN       FAIR      27  18  69 E3        29.99S
BUFFALO        FAIR      31  16  54 SW6       29.99S WCI  25
GILLETTE       FAIR      27  19  72 W12       29.98R WCI  17
HULETT         PTSUNNY   30  21  69 SW7       29.97S WCI  23
NEWCASTLE      FAIR      27  21  80 NW3       29.99S

$$
WYZ014>020-022>026-101>103-201400-
CENTRAL WYOMING

CITY           SKY/WX    TMP DP  RH WIND       PRES   REMARKS
BIG PINEY      FAIR      25  22  88 E6        30.03R WCI  18
PINEDALE       FAIR      23  21  93 W3        30.04S
DUBOIS         FAIR      25  23  93 NW7       30.00S WCI  17
LANDER         FAIR      29  23  78 CALM      30.01R
RIVERTON       FAIR      30  25  81 S3        30.02F
CASPER         FAIR      30  26  85 SW9       30.01S WCI  22
DOUGLAS        FAIR      29  26  89 NW6       30.01S WCI  23

$$
WYZ021-027>030-104>119-201400-
SOUTHERN WYOMING

CITY           SKY/WX    TMP DP  RH WIND       PRES   REMARKS
EVANSTON       FAIR      31  21  66 E6        30.02R WCI  25
FORT BRIDGER   FOG       32  32 100 NW6       30.06R VSB 3/4 WCI  26
ROCK SPRINGS   CLOUDY    29  27  92 E6        30.03R WCI  23
DIXON          FAIR      31  28  90 NE5       30.06R WCI  26
RAWLINS        MOCLDY    26  24  92 NW3       30.03S
SARATOGA       CLOUDY    27  27 100 CALM      30.05R
LARAMIE        FOG       23  22  96 CALM      30.01R VSB 1/4
CHEYENNE       MOCLDY    26  22  84 W10       30.01R WCI  16
TORRINGTON     CLOUDY    30  24  78 W6        30.00S WCI  24
PINE BLUFFS    PTSUNNY   27  23  86 W8        30.03R WCI  18

$$



USA.gov is the U.S. government's official web portal to all federal, state and local government web resources and services.